Voltar ao catálogo

STARLINK-30755

AtivoComunicaçõesVLEO
NORAD 58186·PAYLOAD·🇺🇸 United States

Lançado Oct 30, 2023 de Cape Canaveral Space Force Station

Loading…

Próximas Passagens (próximas 24 horas)

TLE

AtualizadoSource: CelesTrak SupGP

Época: Sep 14, 2026, 21:38 UTC

1 58186C 23167M   26257.90187500  .00042764  00000+0  15511-2 0  2573
2 58186  43.0013 154.5853 0001270 266.4221 163.0863 15.27511120    18

Acompanhe STARLINK-30755 em tempo real com AllMySat

Download on the App Store